Tracking 27126 objects as of 31-Mar-2023
HD Live streaming from Space Station
objects crossing your sky now

STARLINK-4719

Track STARLINK-4719 now!
10-day predictions
STARLINK-4719 is classified as:


NORAD ID: 53774
Int'l Code: 2022-111B
Perigee: 546.0 km
Apogee: 547.6 km
Inclination: 53.2 °
Period: 95.4 minutes
Semi major axis: 6917 km
RCS: Unknown
Launch date: September 11, 2022
Source: United States (US)
Launch site: AIR FORCE EASTERN TEST RANGE (AFETR)
Your satellite tracking list
Your tracking list is empty




NASA's NSSDC Master Catalog

Two Line Element Set (TLE):
1 53774U 22111B   23089.45568699  .00010017  00000-0  64629-3 0  9996
2 53774  53.2176  70.9187 0001169 101.3634 258.7489 15.08853737 31384
Source of the keplerian elements: AFSPC